Location: Boston
(42.3580°N, 71.0600°W)
Time: 08:39:32
(UTC-04:00)

Vanguard 1 Rocket - All Passes

Search period start: 20 October 2017 00:00
Search period end: 30 October 2017 00:00
Orbit: 655 x 4222 km, 34.3° (Epoch: 19 October)

Date Brightness Start Highest point End Pass type
(mag) Time Alt. Az. Time Alt. Az. Time Alt. Az.
20 Oct - 06:57:33 10° SSW 07:03:56 23° SSE 07:08:21 10° ESE daylight
20 Oct - 09:23:32 10° WSW 09:28:40 33° S 09:32:41 10° ESE daylight
20 Oct - 11:49:20 10° WSW 11:52:47 22° SSW 11:56:29 10° SE daylight
21 Oct - 05:46:04 10° SSW 05:52:47 19° SSE 05:57:30 10° ESE visible
21 Oct - 08:11:44 10° SW 08:18:03 32° S 08:22:24 10° ESE daylight
21 Oct - 10:38:08 10° WSW 10:42:20 29° S 10:46:12 10° SE daylight
21 Oct - 13:05:15 10° SW 13:06:32 11° SSW 13:07:54 10° S daylight
22 Oct - 04:35:22 10° S 04:41:15 15° SSE 04:45:44 10° SE visible
22 Oct - 06:59:36 10° SW 07:07:13 30° SSE 07:12:06 10° ESE daylight
22 Oct - 09:26:33 10° WSW 09:31:54 34° S 09:35:58 10° ESE daylight
22 Oct - 11:53:02 10° WSW 11:55:57 17° SSW 11:58:59 10° SSE daylight
23 Oct - 05:47:21 10° SSW 05:56:04 26° SSE 06:01:36 10° ESE visible
23 Oct - 08:14:28 10° WSW 08:21:19 37° S 08:25:50 10° ESE daylight
23 Oct - 10:41:27 10° WSW 10:45:32 25° SSW 10:49:11 10° SE daylight
24 Oct - 04:35:24 10° SSW 04:44:31 21° SSE 04:50:37 10° ESE visible
24 Oct - 07:01:55 10° SW 07:10:29 36° S 07:15:41 10° ESE daylight
24 Oct - 09:29:38 10° WSW 09:35:07 34° S 09:39:13 10° SE daylight
24 Oct - 11:57:14 10° SW 11:59:03 12° SSW 12:00:55 10° S daylight
25 Oct - 03:24:30 10° S 03:32:34 16° SSE 03:38:33 10° ESE visible
25 Oct - 05:49:04 10° SW 05:59:19 33° SSE 06:05:22 10° ESE visible
25 Oct - 08:17:18 10° WSW 08:24:33 40° S 08:29:12 10° ESE daylight
25 Oct - 10:44:54 10° WSW 10:48:39 21° SSW 10:52:00 10° SSE daylight
26 Oct - 02:17:20 10° SSE 02:20:14 11° SSE 02:22:52 10° SE visible
26 Oct - 04:36:18 10° SSW 04:47:45 28° SSE 04:54:44 10° ESE visible
26 Oct - 07:04:24 10° WSW 07:13:43 42° S 07:19:09 10° ESE daylight
26 Oct - 09:32:46 10° WSW 09:38:17 31° SSW 09:42:22 10° SE daylight
27 Oct - 03:24:08 10° SSW 03:35:45 22° SSE 03:43:26 10° ESE visible
27 Oct - 05:51:06 10° SW 06:02:33 39° S 06:08:58 10° ESE visible
27 Oct - 08:20:12 10° WSW 08:27:46 41° S 08:32:31 10° ESE daylight
27 Oct - 10:48:33 10° WSW 10:51:43 16° SSW 10:54:31 10° SSE daylight
28 Oct - 02:13:25 10° S 02:23:22 17° SSE 02:30:47 10° ESE visible
28 Oct - 04:37:42 10° SW 04:50:57 35° SSE 04:58:31 10° E visible
28 Oct - 07:07:02 10° WSW 07:16:56 46° S 07:22:33 10° ESE daylight
28 Oct - 09:35:58 10° W 09:41:24 28° SSW 09:45:24 10° SE daylight
29 Oct - 01:07:47 10° SSE 01:10:39 10° SE 01:13:18 10° SE visible
29 Oct - 03:24:39 10° SSW 03:38:54 29° SSE 03:47:35 10° ESE visible
29 Oct - 05:53:20 10° WSW 06:05:45 46° S 06:12:26 10° ESE visible
29 Oct - 08:23:10 10° W 08:30:55 40° SSW 08:35:46 10° SE daylight
29 Oct - 10:52:44 10° WSW 10:54:40 12° SW 10:56:28 10° S daylight
